Time,TemperatureF,DewpointF,PressureIn,WindDirection,WindDirectionDegrees,WindSpeedMPH,WindSpeedGustMPH,Humidity,HourlyPrecipIn,Conditions,Clouds,dailyrainin,SoftwareType,DateUTC
2013-08-06 00:02:00,70.0,-99.9,-100.00,SSW,210,0.0,0.0,-999,0.00,,,0.00,,2013-08-06 05:02:00,
2013-08-06 00:11:00,70.0,-99.9,-100.00,SSW,210,0.0,0.0,-999,0.00,,,0.00,,2013-08-06 05:11:00,
2013-08-06 00:22:00,70.0,-99.9,-100.00,SSW,210,0.0,0.0,-999,0.00,,,0.00,,2013-08-06 05:22:00,
2013-08-06 00:32:00,69.0,-99.9,-100.00,South,185,0.0,0.0,-999,0.00,,,0.00,,2013-08-06 05:32:00,
2013-08-06 00:43:00,69.0,-99.9,-100.00,South,185,0.0,0.0,-999,0.00,,,0.00,,2013-08-06 05:43:00,
2013-08-06 00:53:00,69.0,-99.9,-100.00,South,185,0.0,0.0,-999,0.00,,,0.00,,2013-08-06 05:53:00,
2013-08-06 01:12:00,69.0,-99.9,-100.00,SSW,198,0.0,0.0,-999,0.00,,,0.00,,2013-08-06 06:12:00,
2013-08-06 01:22:00,69.0,-99.9,-100.00,SSW,198,0.0,0.0,-999,0.00,,,0.00,,2013-08-06 06:22:00,
2013-08-06 01:43:00,68.0,-99.9,-100.00,SSW,195,0.0,0.0,-999,0.00,,,0.00,,2013-08-06 06:43:00,
2013-08-06 01:52:00,68.0,-99.9,-100.00,SSW,195,0.0,0.0,-999,0.00,,,0.00,,2013-08-06 06:52:00,
2013-08-06 02:02:00,68.0,-99.9,-100.00,SSW,213,0.0,0.0,-999,0.00,,,0.00,,2013-08-06 07:02:00,
2013-08-06 02:12:00,68.0,-99.9,-100.00,SSW,213,0.0,0.0,-999,0.00,,,0.00,,2013-08-06 07:12:00,
2013-08-06 02:22:00,68.0,-99.9,-100.00,SSW,213,0.0,0.0,-999,0.00,,,0.00,,2013-08-06 07:22:00,
2013-08-06 02:32:00,68.0,-99.9,-100.00,SW,227,0.0,0.0,-999,0.00,,,0.00,,2013-08-06 07:32:00,
2013-08-06 02:44:00,68.0,-99.9,-100.00,SW,227,0.0,0.0,-999,0.00,,,0.00,,2013-08-06 07:44:00,
2013-08-06 02:53:00,68.0,-99.9,-100.00,SW,227,0.0,0.0,-999,0.00,,,0.00,,2013-08-06 07:53:00,
2013-08-06 03:02:00,66.0,-99.9,-100.00,SSE,151,0.0,0.0,-999,0.00,,,0.00,,2013-08-06 08:02:00,
2013-08-06 03:11:00,66.0,-99.9,-100.00,SSE,151,0.0,0.0,-999,0.00,,,0.00,,2013-08-06 08:11:00,
2013-08-06 03:22:00,66.0,-99.9,-100.00,SSE,151,0.0,0.0,-999,0.00,,,0.00,,2013-08-06 08:22:00,
2013-08-06 03:33:00,67.0,-99.9,-100.00,SE,129,0.0,0.0,-999,0.00,,,0.00,,2013-08-06 08:33:00,
2013-08-06 03:43:00,67.0,-99.9,-100.00,SE,129,0.0,0.0,-999,0.00,,,0.00,,2013-08-06 08:43:00,
2013-08-06 03:52:00,67.0,-99.9,-100.00,SE,129,0.0,0.0,-999,0.00,,,0.00,,2013-08-06 08:52:00,
2013-08-06 04:02:00,67.0,-99.9,-100.00,WSW,238,0.0,0.0,-999,0.00,,,0.00,,2013-08-06 09:02:00,
2013-08-06 04:12:00,67.0,-99.9,-100.00,WSW,238,0.0,0.0,-999,0.00,,,0.00,,2013-08-06 09:12:00,
2013-08-06 04:22:00,67.0,-99.9,-100.00,WSW,238,0.0,0.0,-999,0.00,,,0.00,,2013-08-06 09:22:00,
2013-08-06 04:33:00,66.0,-99.9,-100.00,SW,215,0.0,0.0,-999,0.00,,,0.00,,2013-08-06 09:33:00,
2013-08-06 04:43:00,66.0,-99.9,-100.00,SW,215,0.0,0.0,-999,0.00,,,0.00,,2013-08-06 09:43:00,
2013-08-06 04:52:00,66.0,-99.9,-100.00,SW,215,0.0,0.0,-999,0.00,,,0.00,,2013-08-06 09:52:00,
2013-08-06 05:02:00,66.0,-99.9,-100.00,South,182,0.0,0.0,-999,0.00,,,0.00,,2013-08-06 10:02:00,
2013-08-06 05:12:00,66.0,-99.9,-100.00,South,182,0.0,0.0,-999,0.00,,,0.00,,2013-08-06 10:12:00,
2013-08-06 05:22:00,66.0,-99.9,-100.00,South,182,0.0,0.0,-999,0.00,,,0.00,,2013-08-06 10:22:00,
2013-08-06 05:43:00,66.0,-99.9,-100.00,SW,225,0.0,0.0,-999,0.00,,,0.00,,2013-08-06 10:43:00,
2013-08-06 05:53:00,66.0,-99.9,-100.00,SW,225,0.0,0.0,-999,0.00,,,0.00,,2013-08-06 10:53:00,
2013-08-06 06:11:00,67.0,-99.9,-100.00,SSW,200,0.0,0.0,-999,0.00,,,0.00,,2013-08-06 11:11:00,
2013-08-06 06:22:00,67.0,-99.9,-100.00,SSW,200,0.0,0.0,-999,0.00,,,0.00,,2013-08-06 11:22:00,
2013-08-06 06:32:00,68.0,-99.9,-100.00,South,175,0.0,0.0,-999,0.00,,,0.00,,2013-08-06 11:32:00,
2013-08-06 06:43:00,68.0,-99.9,-100.00,South,175,0.0,0.0,-999,0.00,,,0.00,,2013-08-06 11:43:00,
2013-08-06 06:53:00,68.0,-99.9,-100.00,South,175,0.0,0.0,-999,0.00,,,0.00,,2013-08-06 11:53:00,
2013-08-06 07:02:00,68.0,-99.9,-100.00,South,172,0.0,1.0,-999,0.00,,,0.00,,2013-08-06 12:02:00,
2013-08-06 07:12:00,68.0,-99.9,-100.00,South,172,0.0,1.0,-999,0.00,,,0.00,,2013-08-06 12:12:00,
2013-08-06 07:22:00,68.0,-99.9,-100.00,South,172,0.0,1.0,-999,0.00,,,0.00,,2013-08-06 12:22:00,
2013-08-06 07:43:00,69.0,-99.9,-100.00,South,181,0.0,1.0,-999,0.00,,,0.00,,2013-08-06 12:43:00,
2013-08-06 07:52:00,69.0,-99.9,-100.00,South,181,0.0,1.0,-999,0.00,,,0.00,,2013-08-06 12:52:00,
2013-08-06 08:12:00,69.0,-99.9,-100.00,SSE,159,1.0,3.0,-999,0.00,,,0.00,,2013-08-06 13:12:00,
2013-08-06 08:22:00,69.0,-99.9,-100.00,SSE,159,1.0,3.0,-999,0.00,,,0.00,,2013-08-06 13:22:00,
2013-08-06 08:32:00,69.0,-99.9,-100.00,SSE,155,2.0,4.0,-999,0.00,,,0.00,,2013-08-06 13:32:00,
2013-08-06 08:42:00,69.0,-99.9,-100.00,SSE,155,2.0,4.0,-999,0.00,,,0.00,,2013-08-06 13:42:00,
2013-08-06 08:53:00,69.0,-99.9,-100.00,SSE,155,2.0,4.0,-999,0.00,,,0.00,,2013-08-06 13:53:00,
2013-08-06 09:02:00,69.0,-99.9,-100.00,South,182,2.0,3.0,-999,0.00,,,0.00,,2013-08-06 14:02:00,
2013-08-06 09:11:00,69.0,-99.9,-100.00,South,182,2.0,3.0,-999,0.00,,,0.00,,2013-08-06 14:11:00,
2013-08-06 09:22:00,69.0,-99.9,-100.00,South,182,2.0,3.0,-999,0.00,,,0.00,,2013-08-06 14:22:00,
2013-08-06 09:42:00,70.0,-99.9,-100.00,SSE,168,1.0,3.0,-999,0.00,,,0.00,,2013-08-06 14:42:00,
2013-08-06 09:53:00,70.0,-99.9,-100.00,SSE,168,1.0,3.0,-999,0.00,,,0.00,,2013-08-06 14:53:00,
2013-08-06 10:12:00,70.0,-99.9,-100.00,South,179,1.0,2.0,-999,0.00,,,0.00,,2013-08-06 15:12:00,
2013-08-06 10:23:00,70.0,-99.9,-100.00,South,179,1.0,2.0,-999,0.00,,,0.00,,2013-08-06 15:23:00,
2013-08-06 10:44:00,72.0,-99.9,-100.00,SSW,206,0.0,0.0,-999,0.00,,,0.00,,2013-08-06 15:44:00,
2013-08-06 10:52:00,72.0,-99.9,-100.00,SSW,206,0.0,0.0,-999,0.00,,,0.00,,2013-08-06 15:52:00,
2013-08-06 11:11:00,73.0,-99.9,-100.00,South,183,0.0,1.0,-999,0.00,,,0.00,,2013-08-06 16:11:00,
2013-08-06 11:22:00,73.0,-99.9,-100.00,South,183,0.0,1.0,-999,0.00,,,0.00,,2013-08-06 16:22:00,
2013-08-06 11:43:00,74.0,-99.9,-100.00,South,182,0.0,1.0,-999,0.00,,,0.00,,2013-08-06 16:43:00,
2013-08-06 11:52:00,74.0,-99.9,-100.00,South,182,0.0,1.0,-999,0.00,,,0.00,,2013-08-06 16:52:00,
2013-08-06 12:11:00,75.0,-99.9,-100.00,West,263,0.0,4.0,-999,0.00,,,0.00,,2013-08-06 17:11:00,
2013-08-06 12:22:00,75.0,-99.9,-100.00,West,263,0.0,4.0,-999,0.00,,,0.00,,2013-08-06 17:22:00,
2013-08-06 12:32:00,75.0,-99.9,-100.00,South,181,0.0,1.0,-999,0.00,,,0.00,,2013-08-06 17:32:00,
2013-08-06 12:44:00,75.0,-99.9,-100.00,South,181,0.0,1.0,-999,0.00,,,0.00,,2013-08-06 17:44:00,
2013-08-06 12:52:00,75.0,-99.9,-100.00,South,181,0.0,1.0,-999,0.00,,,0.00,,2013-08-06 17:52:00,
2013-08-06 13:02:00,76.0,-99.9,-100.00,SSE,156,0.0,1.0,-999,0.00,,,0.00,,2013-08-06 18:02:00,
2013-08-06 13:11:00,76.0,-99.9,-100.00,SSE,156,0.0,1.0,-999,0.00,,,0.00,,2013-08-06 18:11:00,
2013-08-06 13:22:00,76.0,-99.9,-100.00,SSE,156,0.0,1.0,-999,0.00,,,0.00,,2013-08-06 18:22:00,
2013-08-06 13:32:00,78.0,-99.9,-100.00,SSE,163,1.0,2.0,-999,0.00,,,0.00,,2013-08-06 18:32:00,
2013-08-06 13:44:00,78.0,-99.9,-100.00,SSE,163,1.0,2.0,-999,0.00,,,0.00,,2013-08-06 18:44:00,
2013-08-06 13:52:00,78.0,-99.9,-100.00,SSE,163,1.0,2.0,-999,0.00,,,0.00,,2013-08-06 18:52:00,
2013-08-06 14:11:00,81.0,-99.9,-100.00,SSE,148,1.0,3.0,-999,0.00,,,0.00,,2013-08-06 19:11:00,
2013-08-06 14:22:00,81.0,-99.9,-100.00,SSE,148,1.0,3.0,-999,0.00,,,0.00,,2013-08-06 19:22:00,
2013-08-06 14:42:00,81.0,-99.9,-100.00,SSE,150,0.0,2.0,-999,0.00,,,0.00,,2013-08-06 19:42:00,
2013-08-06 14:52:00,81.0,-99.9,-100.00,SSE,150,0.0,2.0,-999,0.00,,,0.00,,2013-08-06 19:52:00,
2013-08-06 15:11:00,82.0,-99.9,-100.00,South,185,0.0,0.0,-999,0.00,,,0.00,,2013-08-06 20:11:00,
2013-08-06 15:22:00,82.0,-99.9,-100.00,South,185,0.0,0.0,-999,0.00,,,0.00,,2013-08-06 20:22:00,
2013-08-06 15:44:00,82.0,-99.9,-100.00,SSE,157,1.0,3.0,-999,0.00,,,0.00,,2013-08-06 20:44:00,
2013-08-06 15:52:00,82.0,-99.9,-100.00,SSE,157,1.0,3.0,-999,0.00,,,0.00,,2013-08-06 20:52:00,
2013-08-06 16:02:00,81.0,-99.9,-100.00,South,175,0.0,0.0,-999,0.00,,,0.00,,2013-08-06 21:02:00,
2013-08-06 16:12:00,81.0,-99.9,-100.00,South,175,0.0,0.0,-999,0.00,,,0.00,,2013-08-06 21:12:00,
2013-08-06 16:22:00,81.0,-99.9,-100.00,South,175,0.0,0.0,-999,0.00,,,0.00,,2013-08-06 21:22:00,
2013-08-06 16:43:00,82.0,-99.9,-100.00,NE,49,1.0,3.0,-999,0.00,,,0.00,,2013-08-06 21:43:00,
2013-08-06 16:53:00,82.0,-99.9,-100.00,NE,49,1.0,3.0,-999,0.00,,,0.00,,2013-08-06 21:53:00,
2013-08-06 17:02:00,84.0,-99.9,-100.00,SE,143,1.0,5.0,-999,0.01,,,0.01,,2013-08-06 22:02:00,
2013-08-06 17:12:00,84.0,-99.9,-100.00,SE,143,1.0,5.0,-999,0.01,,,0.01,,2013-08-06 22:12:00,
2013-08-06 17:22:00,84.0,-99.9,-100.00,SE,143,1.0,5.0,-999,0.01,,,0.01,,2013-08-06 22:22:00,
2013-08-06 17:30:00,86.0,-99.9,-100.00,SSE,167,1.0,2.0,-999,0.00,,,0.01,,2013-08-06 22:30:00,
2013-08-06 17:43:00,85.0,-99.9,-100.00,SSE,161,2.0,3.0,-999,0.01,,,0.01,,2013-08-06 22:43:00,
2013-08-06 17:53:00,85.0,-99.9,-100.00,SSE,161,2.0,3.0,-999,0.01,,,0.01,,2013-08-06 22:53:00,
2013-08-06 18:11:00,86.0,-99.9,-100.00,SSE,167,1.0,2.0,-999,0.00,,,0.01,,2013-08-06 23:11:00,
2013-08-06 18:22:00,86.0,-99.9,-100.00,SSE,167,1.0,2.0,-999,0.00,,,0.01,,2013-08-06 23:22:00,
2013-08-06 19:01:00,86.0,-99.9,-100.00,SSE,155,1.0,2.0,-999,0.00,,,0.01,,2013-08-07 00:01:00,
2013-08-06 19:11:00,86.0,-99.9,-100.00,SSE,155,1.0,2.0,-999,0.00,,,0.01,,2013-08-07 00:11:00,
2013-08-06 19:22:00,86.0,-99.9,-100.00,SSE,155,1.0,2.0,-999,0.00,,,0.01,,2013-08-07 00:22:00,
2013-08-06 19:43:00,86.0,-99.9,-100.00,East,100,1.0,2.0,-999,0.00,,,0.01,,2013-08-07 00:43:00,
2013-08-06 19:52:00,86.0,-99.9,-100.00,East,100,1.0,2.0,-999,0.00,,,0.01,,2013-08-07 00:52:00,
2013-08-06 20:01:00,80.0,-99.9,-100.00,NE,41,3.0,4.0,-999,0.00,,,0.01,,2013-08-07 01:01:00,
2013-08-06 20:11:00,80.0,-99.9,-100.00,NE,41,3.0,4.0,-999,0.00,,,0.01,,2013-08-07 01:11:00,
2013-08-06 20:22:00,80.0,-99.9,-100.00,NE,41,3.0,4.0,-999,0.00,,,0.01,,2013-08-07 01:22:00,
2013-08-06 20:32:00,80.0,-99.9,-100.00,SE,131,1.0,3.0,-999,0.00,,,0.01,,2013-08-07 01:32:00,
2013-08-06 20:44:00,80.0,-99.9,-100.00,SE,131,1.0,3.0,-999,0.00,,,0.01,,2013-08-07 01:44:00,
2013-08-06 20:53:00,80.0,-99.9,-100.00,SE,131,1.0,3.0,-999,0.00,,,0.01,,2013-08-07 01:53:00,
2013-08-06 21:02:00,79.0,-99.9,-100.00,ESE,119,2.0,4.0,-999,0.00,,,0.01,,2013-08-07 02:02:00,
2013-08-06 21:12:00,79.0,-99.9,-100.00,ESE,119,2.0,4.0,-999,0.00,,,0.01,,2013-08-07 02:12:00,
2013-08-06 21:22:00,79.0,-99.9,-100.00,ESE,119,2.0,4.0,-999,0.00,,,0.01,,2013-08-07 02:22:00,
2013-08-06 21:43:00,79.0,-99.9,-100.00,SSW,201,0.0,0.0,-999,0.00,,,0.01,,2013-08-07 02:43:00,
2013-08-06 21:53:00,79.0,-99.9,-100.00,SSW,201,0.0,0.0,-999,0.00,,,0.01,,2013-08-07 02:53:00,
2013-08-06 22:12:00,78.0,-99.9,-100.00,South,170,0.0,0.0,-999,0.00,,,0.01,,2013-08-07 03:12:00,
2013-08-06 22:23:00,78.0,-99.9,-100.00,South,170,0.0,0.0,-999,0.00,,,0.01,,2013-08-07 03:23:00,
2013-08-06 22:32:00,77.0,-99.9,-100.00,South,180,0.0,0.0,-999,0.00,,,0.01,,2013-08-07 03:32:00,
2013-08-06 22:43:00,77.0,-99.9,-100.00,South,180,0.0,0.0,-999,0.00,,,0.01,,2013-08-07 03:43:00,
2013-08-06 22:52:00,77.0,-99.9,-100.00,South,180,0.0,0.0,-999,0.00,,,0.01,,2013-08-07 03:52:00,
2013-08-06 23:11:00,76.0,-99.9,-100.00,SSW,192,0.0,0.0,-999,0.00,,,0.01,,2013-08-07 04:11:00,
2013-08-06 23:22:00,76.0,-99.9,-100.00,SSW,192,0.0,0.0,-999,0.00,,,0.01,,2013-08-07 04:22:00,
2013-08-06 23:33:00,76.0,-99.9,-100.00,SSE,161,0.0,2.0,-999,0.00,,,0.01,,2013-08-07 04:33:00,
2013-08-06 23:43:00,76.0,-99.9,-100.00,SSE,161,0.0,2.0,-999,0.00,,,0.01,,2013-08-07 04:43:00,
2013-08-06 23:52:00,76.0,-99.9,-100.00,SSE,161,0.0,2.0,-999,0.00,,,0.01,,2013-08-07 04:52:00,